Time,TemperatureF,DewpointF,PressureIn,WindDirection,WindDirectionDegrees,WindSpeedMPH,WindSpeedGustMPH,Humidity,HourlyPrecipIn,Conditions,Clouds,dailyrainin,SoftwareType,DateUTC
2013-02-20 00:00:00,43.9,42.8,29.63,WNW,292,7.0,11.0,96,0.00,,,0.00,Weather View 32 v70,2013-02-20 05:00:00,
2013-02-20 00:05:00,43.6,42.5,29.64,WNW,292,6.0,11.0,96,0.00,,,0.00,Weather View 32 v70,2013-02-20 05:05:00,
2013-02-20 00:10:00,43.3,42.2,29.64,WNW,292,5.0,10.0,96,0.00,,,0.00,Weather View 32 v70,2013-02-20 05:10:00,
2013-02-20 00:15:00,43.1,42.0,29.64,WNW,292,5.0,10.0,96,0.00,,,0.00,Weather View 32 v70,2013-02-20 05:15:00,
2013-02-20 00:20:00,42.9,41.8,29.64,WNW,292,2.0,10.0,96,0.00,,,0.00,Weather View 32 v70,2013-02-20 05:20:00,
2013-02-20 00:25:00,42.8,41.7,29.64,NW,315,3.0,10.0,96,0.00,,,0.00,Weather View 32 v70,2013-02-20 05:25:00,
2013-02-20 00:30:00,42.7,41.6,29.64,WNW,292,4.0,10.0,96,0.00,,,0.00,Weather View 32 v70,2013-02-20 05:30:00,
2013-02-20 00:35:00,42.5,41.4,29.65,WNW,292,4.0,10.0,96,0.00,,,0.00,Weather View 32 v70,2013-02-20 05:35:00,
2013-02-20 00:40:00,42.4,41.3,29.65,WNW,292,4.0,10.0,96,0.00,,,0.00,Weather View 32 v70,2013-02-20 05:40:00,
2013-02-20 00:45:00,42.3,41.2,29.65,WNW,292,4.0,10.0,96,0.00,,,0.00,Weather View 32 v70,2013-02-20 05:45:00,
2013-02-20 00:50:00,42.3,41.2,29.65,WNW,292,4.0,10.0,96,0.00,,,0.00,Weather View 32 v70,2013-02-20 05:50:00,
2013-02-20 00:55:00,42.2,41.1,29.65,WNW,292,6.0,9.0,96,0.00,,,0.00,Weather View 32 v70,2013-02-20 05:55:00,
2013-02-20 01:00:00,42.2,41.1,29.65,WNW,292,5.0,9.0,96,0.00,,,0.00,Weather View 32 v70,2013-02-20 06:00:00,
2013-02-20 01:05:00,42.1,41.0,29.65,WNW,292,4.0,7.0,96,0.00,,,0.00,Weather View 32 v70,2013-02-20 06:05:00,
2013-02-20 01:10:00,41.9,40.8,29.65,WNW,292,4.0,7.0,96,0.00,,,0.00,Weather View 32 v70,2013-02-20 06:10:00,
2013-02-20 01:15:00,42.2,41.1,29.65,WNW,292,5.0,8.0,96,0.00,,,0.00,Weather View 32 v70,2013-02-20 06:15:00,
2013-02-20 01:20:00,41.9,40.8,29.66,WNW,292,4.0,8.0,96,0.00,,,0.00,Weather View 32 v70,2013-02-20 06:20:00,
2013-02-20 01:25:00,41.9,40.8,29.65,WNW,292,6.0,9.0,96,0.00,,,0.00,Weather View 32 v70,2013-02-20 06:25:00,
2013-02-20 01:30:00,41.9,40.8,29.65,WNW,292,2.0,9.0,96,0.00,,,0.00,Weather View 32 v70,2013-02-20 06:30:00,
2013-02-20 01:35:00,41.8,40.7,29.65,WNW,292,4.0,9.0,96,0.00,,,0.00,Weather View 32 v70,2013-02-20 06:35:00,
2013-02-20 01:40:00,41.6,40.5,29.65,WNW,292,6.0,9.0,96,0.00,,,0.00,Weather View 32 v70,2013-02-20 06:40:00,
2013-02-20 01:45:00,41.5,40.4,29.65,WNW,292,6.0,9.0,96,0.00,,,0.00,Weather View 32 v70,2013-02-20 06:45:00,
2013-02-20 01:50:00,41.3,40.2,29.65,WNW,292,6.0,9.0,96,0.00,,,0.00,Weather View 32 v70,2013-02-20 06:50:00,
2013-02-20 01:55:00,41.2,40.1,29.65,WNW,292,2.0,9.0,96,0.00,,,0.00,Weather View 32 v70,2013-02-20 06:55:00,
2013-02-20 02:00:00,41.1,39.5,29.65,WNW,292,6.0,9.0,94,0.00,,,0.00,Weather View 32 v70,2013-02-20 07:00:00,
2013-02-20 02:05:00,41.1,39.0,29.65,WNW,292,6.0,9.0,92,0.00,,,0.00,Weather View 32 v70,2013-02-20 07:05:00,
2013-02-20 02:10:00,40.9,39.0,29.65,WNW,292,6.0,9.0,93,0.00,,,0.00,Weather View 32 v70,2013-02-20 07:10:00,
2013-02-20 02:15:00,40.7,39.1,29.65,WNW,292,4.0,9.0,94,0.00,,,0.00,Weather View 32 v70,2013-02-20 07:15:00,
2013-02-20 02:20:00,40.5,38.6,29.65,WNW,292,4.0,9.0,93,0.00,,,0.00,Weather View 32 v70,2013-02-20 07:20:00,
2013-02-20 02:25:00,40.4,38.3,29.65,WNW,292,4.0,8.0,92,0.00,,,0.00,Weather View 32 v70,2013-02-20 07:25:00,
2013-02-20 02:30:00,40.3,38.2,29.65,WNW,292,4.0,7.0,92,0.00,,,0.00,Weather View 32 v70,2013-02-20 07:30:00,
2013-02-20 02:35:00,40.3,37.9,29.65,WNW,292,4.0,7.0,91,0.00,,,0.00,Weather View 32 v70,2013-02-20 07:35:00,
2013-02-20 02:40:00,40.1,37.7,29.65,WNW,292,2.0,7.0,91,0.00,,,0.00,Weather View 32 v70,2013-02-20 07:40:00,
2013-02-20 02:45:00,39.9,37.5,29.65,WNW,292,4.0,7.0,91,0.00,,,0.00,Weather View 32 v70,2013-02-20 07:45:00,
2013-02-20 02:50:00,39.6,37.5,29.65,WNW,292,4.0,7.0,92,0.00,,,0.00,Weather View 32 v70,2013-02-20 07:50:00,
2013-02-20 02:55:00,39.4,37.5,29.65,WNW,292,2.0,7.0,93,0.00,,,0.00,Weather View 32 v70,2013-02-20 07:55:00,
2013-02-20 03:00:00,39.2,37.6,29.65,WNW,292,5.0,7.0,94,0.00,,,0.00,Weather View 32 v70,2013-02-20 08:00:00,
2013-02-20 03:05:00,39.0,37.4,29.66,WNW,292,2.0,7.0,94,0.00,,,0.00,Weather View 32 v70,2013-02-20 08:05:00,
2013-02-20 03:10:00,38.7,37.4,29.66,WNW,292,3.0,7.0,95,0.00,,,0.00,Weather View 32 v70,2013-02-20 08:10:00,
2013-02-20 03:15:00,38.6,37.6,29.65,WNW,292,2.0,7.0,96,0.00,,,0.00,Weather View 32 v70,2013-02-20 08:15:00,
2013-02-20 03:20:00,38.5,37.5,29.65,WNW,292,4.0,7.0,96,0.00,,,0.00,Weather View 32 v70,2013-02-20 08:20:00,
2013-02-20 03:25:00,38.4,37.4,29.65,WNW,292,2.0,7.0,96,0.00,,,0.00,Weather View 32 v70,2013-02-20 08:25:00,
2013-02-20 03:30:00,38.1,37.1,29.66,WNW,292,2.0,7.0,96,0.00,,,0.00,Weather View 32 v70,2013-02-20 08:30:00,
2013-02-20 03:35:00,37.9,36.6,29.66,WNW,292,2.0,6.0,95,0.00,,,0.00,Weather View 32 v70,2013-02-20 08:35:00,
2013-02-20 03:41:00,37.9,36.6,29.66,West,270,4.0,6.0,95,0.00,,,0.00,Weather View 32 v70,2013-02-20 08:41:00,
2013-02-20 03:46:00,37.9,36.6,29.65,West,270,3.0,6.0,95,0.00,,,0.00,Weather View 32 v70,2013-02-20 08:46:00,
2013-02-20 03:51:00,37.9,36.3,29.66,WNW,292,4.0,7.0,94,0.00,,,0.00,Weather View 32 v70,2013-02-20 08:51:00,
2013-02-20 03:56:00,37.8,36.2,29.65,WNW,292,6.0,8.0,94,0.00,,,0.00,Weather View 32 v70,2013-02-20 08:56:00,
2013-02-20 04:01:00,37.8,36.0,29.65,WNW,292,6.0,8.0,93,0.00,,,0.00,Weather View 32 v70,2013-02-20 09:01:00,
2013-02-20 04:06:00,37.7,35.9,29.66,WNW,292,6.0,8.0,93,0.00,,,0.00,Weather View 32 v70,2013-02-20 09:06:00,
2013-02-20 04:11:00,37.5,35.7,29.66,WNW,292,6.0,11.0,93,0.00,,,0.00,Weather View 32 v70,2013-02-20 09:11:00,
2013-02-20 04:16:00,37.4,35.6,29.66,WNW,292,3.0,11.0,93,0.00,,,0.00,Weather View 32 v70,2013-02-20 09:16:00,
2013-02-20 04:21:00,37.2,35.4,29.66,WNW,292,6.0,11.0,93,0.00,,,0.00,Weather View 32 v70,2013-02-20 09:21:00,
2013-02-20 04:26:00,36.9,35.1,29.66,WNW,292,3.0,11.0,93,0.00,,,0.00,Weather View 32 v70,2013-02-20 09:26:00,
2013-02-20 04:31:00,36.8,35.0,29.66,WNW,292,5.0,11.0,93,0.00,,,0.00,Weather View 32 v70,2013-02-20 09:31:00,
2013-02-20 04:36:00,36.6,35.0,29.66,NW,315,4.0,11.0,94,0.00,,,0.00,Weather View 32 v70,2013-02-20 09:36:00,
2013-02-20 04:41:00,36.4,35.1,29.65,WNW,292,4.0,11.0,95,0.00,,,0.00,Weather View 32 v70,2013-02-20 09:41:00,
2013-02-20 04:46:00,36.2,34.9,29.65,WNW,292,4.0,11.0,95,0.00,,,0.00,Weather View 32 v70,2013-02-20 09:46:00,
2013-02-20 04:51:00,36.0,34.7,29.66,WNW,292,3.0,11.0,95,0.00,,,0.00,Weather View 32 v70,2013-02-20 09:51:00,
2013-02-20 04:56:00,35.9,34.6,29.66,NW,315,2.0,11.0,95,0.00,,,0.00,Weather View 32 v70,2013-02-20 09:56:00,
2013-02-20 05:01:00,35.7,34.4,29.67,WNW,292,3.0,11.0,95,0.00,,,0.00,Weather View 32 v70,2013-02-20 10:01:00,
2013-02-20 05:06:00,35.6,34.3,29.67,WNW,292,2.0,11.0,95,0.00,,,0.00,Weather View 32 v70,2013-02-20 10:06:00,
2013-02-20 05:11:00,35.5,34.2,29.67,WNW,292,2.0,9.0,95,0.00,,,0.00,Weather View 32 v70,2013-02-20 10:11:00,
2013-02-20 05:16:00,35.3,34.0,29.67,WNW,292,2.0,8.0,95,0.00,,,0.00,Weather View 32 v70,2013-02-20 10:16:00,
2013-02-20 05:21:00,35.3,34.0,29.67,WNW,292,1.0,8.0,95,0.00,,,0.00,Weather View 32 v70,2013-02-20 10:21:00,
2013-02-20 05:26:00,34.9,33.6,29.67,WNW,292,1.0,7.0,95,0.00,,,0.00,Weather View 32 v70,2013-02-20 10:26:00,
2013-02-20 05:31:00,34.7,33.4,29.67,WNW,292,1.0,6.0,95,0.00,,,0.00,Weather View 32 v70,2013-02-20 10:31:00,
2013-02-20 05:36:00,34.8,33.5,29.67,WNW,292,2.0,6.0,95,0.00,,,0.00,Weather View 32 v70,2013-02-20 10:36:00,
2013-02-20 05:41:00,34.6,33.3,29.67,WNW,292,2.0,6.0,95,0.00,,,0.00,Weather View 32 v70,2013-02-20 10:41:00,
2013-02-20 05:46:00,34.3,33.0,29.67,WNW,292,1.0,6.0,95,0.00,,,0.00,Weather View 32 v70,2013-02-20 10:46:00,
2013-02-20 05:51:00,34.0,32.7,29.67,WNW,292,2.0,5.0,95,0.00,,,0.00,Weather View 32 v70,2013-02-20 10:51:00,
2013-02-20 05:56:00,33.9,32.6,29.67,WNW,292,2.0,5.0,95,0.00,,,0.00,Weather View 32 v70,2013-02-20 10:56:00,
2013-02-20 06:01:00,33.9,32.6,29.67,WNW,292,1.0,4.0,95,0.00,,,0.00,Weather View 32 v70,2013-02-20 11:01:00,
2013-02-20 06:06:00,33.9,32.6,29.67,WNW,292,1.0,4.0,95,0.00,,,0.00,Weather View 32 v70,2013-02-20 11:06:00,
2013-02-20 06:11:00,33.6,32.3,29.67,WNW,292,2.0,3.0,95,0.00,,,0.00,Weather View 32 v70,2013-02-20 11:11:00,
2013-02-20 06:16:00,33.3,32.0,29.68,WNW,292,0.0,3.0,95,0.00,,,0.00,Weather View 32 v70,2013-02-20 11:16:00,
2013-02-20 06:21:00,32.9,31.6,29.67,WNW,292,1.0,3.0,95,0.00,,,0.00,Weather View 32 v70,2013-02-20 11:21:00,
2013-02-20 06:26:00,32.6,31.3,29.68,WNW,292,2.0,3.0,95,0.00,,,0.00,Weather View 32 v70,2013-02-20 11:26:00,
2013-02-20 06:31:00,32.4,31.1,29.68,WNW,292,1.0,3.0,95,0.00,,,0.00,Weather View 32 v70,2013-02-20 11:31:00,
2013-02-20 06:36:00,32.2,30.9,29.68,WNW,292,2.0,3.0,95,0.00,,,0.00,Weather View 32 v70,2013-02-20 11:36:00,
2013-02-20 06:41:00,32.5,31.2,29.68,WNW,292,2.0,3.0,95,0.00,,,0.00,Weather View 32 v70,2013-02-20 11:41:00,
2013-02-20 06:46:00,32.6,31.3,29.68,WNW,292,2.0,3.0,95,0.00,,,0.00,Weather View 32 v70,2013-02-20 11:46:00,
2013-02-20 06:51:00,32.4,31.1,29.68,WNW,292,2.0,3.0,95,0.00,,,0.00,Weather View 32 v70,2013-02-20 11:51:00,
2013-02-20 06:56:00,32.5,31.2,29.68,WNW,292,1.0,3.0,95,0.00,,,0.00,Weather View 32 v70,2013-02-20 11:56:00,
2013-02-20 07:01:00,32.4,31.1,29.68,WNW,292,1.0,2.0,95,0.00,,,0.00,Weather View 32 v70,2013-02-20 12:01:00,
2013-02-20 07:06:00,32.5,31.2,29.68,WNW,292,1.0,3.0,95,0.00,,,0.00,Weather View 32 v70,2013-02-20 12:06:00,
2013-02-20 07:11:00,32.5,31.2,29.68,WNW,292,1.0,3.0,95,0.00,,,0.00,Weather View 32 v70,2013-02-20 12:11:00,
2013-02-20 07:16:00,32.8,31.5,29.68,NW,315,2.0,3.0,95,0.00,,,0.00,Weather View 32 v70,2013-02-20 12:16:00,
2013-02-20 07:21:00,33.3,32.0,29.68,WNW,292,2.0,4.0,95,0.00,,,0.00,Weather View 32 v70,2013-02-20 12:21:00,
2013-02-20 07:26:00,33.9,32.6,29.69,WNW,292,2.0,5.0,95,0.00,,,0.00,Weather View 32 v70,2013-02-20 12:26:00,
2013-02-20 07:31:00,34.3,33.0,29.69,WNW,292,3.0,6.0,95,0.00,,,0.00,Weather View 32 v70,2013-02-20 12:31:00,
2013-02-20 07:36:00,34.7,33.4,29.69,WNW,292,2.0,6.0,95,0.00,,,0.00,Weather View 32 v70,2013-02-20 12:36:00,
2013-02-20 07:41:00,35.0,33.2,29.70,WNW,292,4.0,6.0,93,0.00,,,0.00,Weather View 32 v70,2013-02-20 12:41:00,
2013-02-20 07:46:00,35.3,33.2,29.70,WNW,292,4.0,6.0,92,0.00,,,0.00,Weather View 32 v70,2013-02-20 12:46:00,
2013-02-20 07:51:00,35.3,32.7,29.71,West,270,7.0,7.0,90,0.00,,,0.00,Weather View 32 v70,2013-02-20 12:51:00,
2013-02-20 07:56:00,35.7,32.8,29.71,WNW,292,4.0,7.0,89,0.00,,,0.00,Weather View 32 v70,2013-02-20 12:56:00,
2013-02-20 08:01:00,35.9,32.7,29.71,WNW,292,3.0,7.0,88,0.00,,,0.00,Weather View 32 v70,2013-02-20 13:01:00,
2013-02-20 08:06:00,36.3,32.8,29.71,WNW,292,3.0,7.0,87,0.00,,,0.00,Weather View 32 v70,2013-02-20 13:06:00,
2013-02-20 08:11:00,36.5,32.4,29.72,WNW,292,3.0,7.0,85,0.00,,,0.00,Weather View 32 v70,2013-02-20 13:11:00,
2013-02-20 08:16:00,36.8,32.7,29.72,WNW,292,4.0,7.0,85,0.00,,,0.00,Weather View 32 v70,2013-02-20 13:16:00,
2013-02-20 08:21:00,37.1,33.0,29.72,WNW,292,4.0,7.0,85,0.00,,,0.00,Weather View 32 v70,2013-02-20 13:21:00,
2013-02-20 08:26:00,37.4,33.0,29.71,WNW,292,5.0,7.0,84,0.00,,,0.00,Weather View 32 v70,2013-02-20 13:26:00,
2013-02-20 08:31:00,37.7,31.8,29.72,NW,315,2.0,7.0,79,0.00,,,0.00,Weather View 32 v70,2013-02-20 13:31:00,
2013-02-20 08:36:00,37.9,32.3,29.72,WNW,292,6.0,7.0,80,0.00,,,0.00,Weather View 32 v70,2013-02-20 13:36:00,
2013-02-20 08:41:00,38.4,33.7,29.72,WNW,292,5.0,7.0,83,0.00,,,0.00,Weather View 32 v70,2013-02-20 13:41:00,
2013-02-20 08:46:00,38.6,33.6,29.72,WNW,292,5.0,8.0,82,0.00,,,0.00,Weather View 32 v70,2013-02-20 13:46:00,
2013-02-20 08:51:00,38.8,33.8,29.73,WNW,292,5.0,8.0,82,0.00,,,0.00,Weather View 32 v70,2013-02-20 13:51:00,
2013-02-20 08:56:00,38.9,32.9,29.73,WNW,292,4.0,8.0,79,0.00,,,0.00,Weather View 32 v70,2013-02-20 13:56:00,
2013-02-20 09:01:00,39.5,34.8,29.73,WNW,292,3.0,8.0,83,0.00,,,0.00,Weather View 32 v70,2013-02-20 14:01:00,
2013-02-20 09:06:00,39.9,34.5,29.73,WNW,292,6.0,8.0,81,0.00,,,0.00,Weather View 32 v70,2013-02-20 14:06:00,
2013-02-20 09:11:00,40.2,33.9,29.73,WNW,292,6.0,8.0,78,0.00,,,0.00,Weather View 32 v70,2013-02-20 14:11:00,
2013-02-20 09:16:00,40.6,33.6,29.74,WNW,292,3.0,8.0,76,0.00,,,0.00,Weather View 32 v70,2013-02-20 14:16:00,
2013-02-20 09:21:00,41.6,33.9,29.74,West,270,3.0,8.0,74,0.00,,,0.00,Weather View 32 v70,2013-02-20 14:21:00,
2013-02-20 09:26:00,41.9,34.5,29.74,WNW,292,2.0,8.0,75,0.00,,,0.00,Weather View 32 v70,2013-02-20 14:26:00,
2013-02-20 09:31:00,42.4,32.6,29.74,WNW,292,2.0,8.0,68,0.00,,,0.00,Weather View 32 v70,2013-02-20 14:31:00,
2013-02-20 09:36:00,42.6,34.5,29.74,WNW,292,0.0,8.0,73,0.00,,,0.00,Weather View 32 v70,2013-02-20 14:36:00,
2013-02-20 09:41:00,42.9,33.4,29.74,West,270,2.0,8.0,69,0.00,,,0.00,Weather View 32 v70,2013-02-20 14:41:00,
2013-02-20 09:46:00,44.1,33.8,29.74,NW,315,2.0,7.0,67,0.00,,,0.00,Weather View 32 v70,2013-02-20 14:46:00,
2013-02-20 09:51:00,44.3,30.9,29.73,NW,315,1.0,7.0,59,0.00,,,0.00,Weather View 32 v70,2013-02-20 14:51:00,
2013-02-20 09:56:00,45.1,32.4,29.73,WNW,292,1.0,7.0,61,0.00,,,0.00,Weather View 32 v70,2013-02-20 14:56:00,
2013-02-20 10:01:00,45.6,30.8,29.73,NW,315,2.0,7.0,56,0.00,,,0.00,Weather View 32 v70,2013-02-20 15:01:00,
2013-02-20 10:06:00,46.1,31.3,29.73,North,360,2.0,7.0,56,0.00,,,0.00,Weather View 32 v70,2013-02-20 15:06:00,
2013-02-20 10:11:00,45.9,31.9,29.73,NW,315,4.0,6.0,58,0.00,,,0.00,Weather View 32 v70,2013-02-20 15:11:00,
2013-02-20 10:16:00,45.9,31.1,29.74,WNW,292,2.0,6.0,56,0.00,,,0.00,Weather View 32 v70,2013-02-20 15:16:00,
2013-02-20 10:21:00,46.5,31.2,29.74,NW,315,2.0,6.0,55,0.00,,,0.00,Weather View 32 v70,2013-02-20 15:21:00,
2013-02-20 10:26:00,46.6,29.9,29.74,WNW,292,2.0,6.0,52,0.00,,,0.00,Weather View 32 v70,2013-02-20 15:26:00,
2013-02-20 10:31:00,47.2,30.9,29.74,West,270,1.0,6.0,53,0.00,,,0.00,Weather View 32 v70,2013-02-20 15:31:00,
2013-02-20 10:36:00,48.3,29.5,29.74,NNE,22,2.0,6.0,48,0.00,,,0.00,Weather View 32 v70,2013-02-20 15:36:00,
2013-02-20 10:41:00,48.8,28.9,29.74,NNE,22,2.0,6.0,46,0.00,,,0.00,Weather View 32 v70,2013-02-20 15:41:00,
2013-02-20 10:46:00,49.3,29.9,29.74,North,360,0.0,6.0,47,0.00,,,0.00,Weather View 32 v70,2013-02-20 15:46:00,
2013-02-20 10:51:00,49.9,29.4,29.74,North,360,1.0,6.0,45,0.00,,,0.00,Weather View 32 v70,2013-02-20 15:51:00,
2013-02-20 10:56:00,50.6,28.3,29.74,North,360,3.0,6.0,42,0.00,,,0.00,Weather View 32 v70,2013-02-20 15:56:00,
2013-02-20 11:01:00,50.3,25.6,29.74,NE,45,4.0,6.0,38,0.00,,,0.00,Weather View 32 v70,2013-02-20 16:01:00,
2013-02-20 11:06:00,50.3,26.2,29.74,WSW,247,4.0,6.0,39,0.00,,,0.00,Weather View 32 v70,2013-02-20 16:06:00,
2013-02-20 11:11:00,50.3,25.6,29.74,West,270,3.0,6.0,38,0.00,,,0.00,Weather View 32 v70,2013-02-20 16:11:00,
2013-02-20 11:16:00,50.3,25.0,29.74,NW,315,3.0,6.0,37,0.00,,,0.00,Weather View 32 v70,2013-02-20 16:16:00,
2013-02-20 11:22:00,49.5,24.3,29.73,ESE,112,2.0,7.0,37,0.00,,,0.00,Weather View 32 v70,2013-02-20 16:22:00,
2013-02-20 11:27:00,50.9,26.1,29.73,NW,315,4.0,7.0,38,0.00,,,0.00,Weather View 32 v70,2013-02-20 16:27:00,
2013-02-20 11:32:00,50.7,26.0,29.73,NW,315,1.0,7.0,38,0.00,,,0.00,Weather View 32 v70,2013-02-20 16:32:00,
2013-02-20 11:37:00,51.4,26.6,29.73,NW,315,4.0,7.0,38,0.00,,,0.00,Weather View 32 v70,2013-02-20 16:37:00,
2013-02-20 11:42:00,51.9,26.4,29.73,NW,315,4.0,7.0,37,0.00,,,0.00,Weather View 32 v70,2013-02-20 16:42:00,
2013-02-20 11:47:00,51.6,25.5,29.72,NW,315,4.0,7.0,36,0.00,,,0.00,Weather View 32 v70,2013-02-20 16:47:00,
2013-02-20 11:52:00,51.7,26.2,29.72,South,180,2.0,7.0,37,0.00,,,0.00,Weather View 32 v70,2013-02-20 16:52:00,
2013-02-20 11:57:00,51.2,25.8,29.72,NW,315,2.0,7.0,37,0.00,,,0.00,Weather View 32 v70,2013-02-20 16:57:00,
2013-02-20 12:02:00,51.4,26.0,29.71,West,270,4.0,7.0,37,0.00,,,0.00,Weather View 32 v70,2013-02-20 17:02:00,
2013-02-20 12:07:00,51.5,24.7,29.71,West,270,5.0,7.0,35,0.00,,,0.00,Weather View 32 v70,2013-02-20 17:07:00,
2013-02-20 12:12:00,52.1,26.6,29.71,West,270,2.0,7.0,37,0.00,,,0.00,Weather View 32 v70,2013-02-20 17:12:00,
2013-02-20 12:17:00,52.6,24.3,29.71,SW,225,6.0,7.0,33,0.00,,,0.00,Weather View 32 v70,2013-02-20 17:17:00,
2013-02-20 12:22:00,52.1,21.6,29.70,SW,225,5.0,8.0,30,0.00,,,0.00,Weather View 32 v70,2013-02-20 17:22:00,
2013-02-20 12:27:00,52.8,23.7,29.70,WSW,247,4.0,9.0,32,0.00,,,0.00,Weather View 32 v70,2013-02-20 17:27:00,
2013-02-20 12:32:00,53.1,23.2,29.69,WNW,292,6.0,9.0,31,0.00,,,0.00,Weather View 32 v70,2013-02-20 17:32:00,
2013-02-20 12:37:00,53.3,22.6,29.69,WNW,292,5.0,9.0,30,0.00,,,0.00,Weather View 32 v70,2013-02-20 17:37:00,
2013-02-20 12:42:00,53.6,22.9,29.69,West,270,3.0,9.0,30,0.00,,,0.00,Weather View 32 v70,2013-02-20 17:42:00,
2013-02-20 12:47:00,53.8,21.4,29.69,West,270,6.0,9.0,28,0.00,,,0.00,Weather View 32 v70,2013-02-20 17:47:00,
2013-02-20 12:52:00,53.8,18.7,29.69,WNW,292,3.0,11.0,25,0.00,,,0.00,Weather View 32 v70,2013-02-20 17:52:00,
2013-02-20 12:57:00,54.1,20.8,29.68,WNW,292,6.0,11.0,27,0.00,,,0.00,Weather View 32 v70,2013-02-20 17:57:00,
2013-02-20 13:02:00,54.4,23.6,29.68,WSW,247,5.0,11.0,30,0.00,,,0.00,Weather View 32 v70,2013-02-20 18:02:00,
2013-02-20 13:07:00,54.5,21.1,29.68,WNW,292,8.0,11.0,27,0.00,,,0.00,Weather View 32 v70,2013-02-20 18:07:00,
2013-02-20 13:12:00,54.6,21.2,29.67,West,270,6.0,11.0,27,0.00,,,0.00,Weather View 32 v70,2013-02-20 18:12:00,
2013-02-20 13:17:00,54.9,21.5,29.67,West,270,2.0,11.0,27,0.00,,,0.00,Weather View 32 v70,2013-02-20 18:17:00,
2013-02-20 13:22:00,55.1,21.7,29.66,NNW,337,8.0,11.0,27,0.00,,,0.00,Weather View 32 v70,2013-02-20 18:22:00,
2013-02-20 13:27:00,55.3,21.8,29.66,West,270,1.0,11.0,27,0.00,,,0.00,Weather View 32 v70,2013-02-20 18:27:00,
2013-02-20 13:32:00,55.9,22.3,29.66,North,360,2.0,11.0,27,0.00,,,0.00,Weather View 32 v70,2013-02-20 18:32:00,
2013-02-20 13:37:00,56.5,21.0,29.65,ENE,67,4.0,11.0,25,0.00,,,0.00,Weather View 32 v70,2013-02-20 18:37:00,
2013-02-20 13:42:00,56.6,24.6,29.65,WSW,247,6.0,11.0,29,0.00,,,0.00,Weather View 32 v70,2013-02-20 18:42:00,
2013-02-20 13:47:00,56.3,22.7,29.65,WSW,247,2.0,11.0,27,0.00,,,0.00,Weather View 32 v70,2013-02-20 18:47:00,
2013-02-20 13:52:00,56.7,22.1,29.65,East,90,1.0,11.0,26,0.00,,,0.00,Weather View 32 v70,2013-02-20 18:52:00,
2013-02-20 13:57:00,56.9,24.9,29.65,West,270,1.0,11.0,29,0.00,,,0.00,Weather View 32 v70,2013-02-20 18:57:00,
2013-02-20 14:02:00,56.7,23.9,29.65,South,180,1.0,11.0,28,0.00,,,0.00,Weather View 32 v70,2013-02-20 19:02:00,
2013-02-20 14:07:00,57.3,23.5,29.66,NNW,337,1.0,11.0,27,0.00,,,0.00,Weather View 32 v70,2013-02-20 19:07:00,
2013-02-20 14:12:00,57.5,25.4,29.66,WNW,292,5.0,9.0,29,0.00,,,0.00,Weather View 32 v70,2013-02-20 19:12:00,
2013-02-20 14:17:00,57.3,25.3,29.66,WNW,292,4.0,9.0,29,0.00,,,0.00,Weather View 32 v70,2013-02-20 19:17:00,
2013-02-20 14:22:00,57.4,25.3,29.66,West,270,4.0,9.0,29,0.00,,,0.00,Weather View 32 v70,2013-02-20 19:22:00,
2013-02-20 14:27:00,57.9,27.4,29.66,West,270,2.0,9.0,31,0.00,,,0.00,Weather View 32 v70,2013-02-20 19:27:00,
2013-02-20 14:32:00,57.4,24.5,29.67,WSW,247,0.0,9.0,28,0.00,,,0.00,Weather View 32 v70,2013-02-20 19:32:00,
2013-02-20 14:37:00,57.6,23.8,29.67,SW,225,2.0,10.0,27,0.00,,,0.00,Weather View 32 v70,2013-02-20 19:37:00,
2013-02-20 14:42:00,58.2,23.4,29.66,SW,225,7.0,10.0,26,0.00,,,0.00,Weather View 32 v70,2013-02-20 19:42:00,
2013-02-20 14:47:00,57.7,23.9,29.66,SW,225,9.0,13.0,27,0.00,,,0.00,Weather View 32 v70,2013-02-20 19:47:00,
2013-02-20 14:52:00,58.1,26.8,29.65,SW,225,5.0,13.0,30,0.00,,,0.00,Weather View 32 v70,2013-02-20 19:52:00,
2013-02-20 14:57:00,58.7,24.7,29.66,NNW,337,6.0,13.0,27,0.00,,,0.00,Weather View 32 v70,2013-02-20 19:57:00,
2013-02-20 15:02:00,58.4,23.6,29.66,WNW,292,4.0,13.0,26,0.00,,,0.00,Weather View 32 v70,2013-02-20 20:02:00,
2013-02-20 15:07:00,58.4,24.5,29.65,WSW,247,10.0,13.0,27,0.00,,,0.00,Weather View 32 v70,2013-02-20 20:07:00,
2013-02-20 15:12:00,58.4,24.5,29.66,West,270,4.0,13.0,27,0.00,,,0.00,Weather View 32 v70,2013-02-20 20:12:00,
2013-02-20 15:17:00,58.3,23.5,29.66,SW,225,2.0,13.0,26,0.00,,,0.00,Weather View 32 v70,2013-02-20 20:17:00,
2013-02-20 15:22:00,59.1,26.0,29.66,WSW,247,8.0,13.0,28,0.00,,,0.00,Weather View 32 v70,2013-02-20 20:22:00,
2013-02-20 15:27:00,59.2,24.3,29.66,NW,315,7.0,13.0,26,0.00,,,0.00,Weather View 32 v70,2013-02-20 20:27:00,
2013-02-20 15:32:00,58.8,24.8,29.66,WSW,247,10.0,13.0,27,0.00,,,0.00,Weather View 32 v70,2013-02-20 20:32:00,
2013-02-20 15:37:00,57.9,22.2,29.66,SW,225,5.0,13.0,25,0.00,,,0.00,Weather View 32 v70,2013-02-20 20:37:00,
2013-02-20 15:42:00,57.8,22.1,29.66,SW,225,5.0,13.0,25,0.00,,,0.00,Weather View 32 v70,2013-02-20 20:42:00,
2013-02-20 15:47:00,58.4,23.6,29.67,West,270,6.0,11.0,26,0.00,,,0.00,Weather View 32 v70,2013-02-20 20:47:00,
2013-02-20 15:52:00,58.5,24.6,29.67,WNW,292,5.0,11.0,27,0.00,,,0.00,Weather View 32 v70,2013-02-20 20:52:00,
2013-02-20 15:57:00,58.3,23.5,29.66,West,270,3.0,11.0,26,0.00,,,0.00,Weather View 32 v70,2013-02-20 20:57:00,
2013-02-20 16:02:00,58.5,24.6,29.65,West,270,6.0,11.0,27,0.00,,,0.00,Weather View 32 v70,2013-02-20 21:02:00,
2013-02-20 16:07:00,58.4,23.6,29.65,WNW,292,2.0,11.0,26,0.00,,,0.00,Weather View 32 v70,2013-02-20 21:07:00,
2013-02-20 16:13:00,58.2,23.4,29.66,West,270,5.0,11.0,26,0.00,,,0.00,Weather View 32 v70,2013-02-20 21:13:00,
2013-02-20 16:18:00,58.0,25.0,29.67,WNW,292,7.0,11.0,28,0.00,,,0.00,Weather View 32 v70,2013-02-20 21:18:00,
2013-02-20 16:23:00,57.7,24.8,29.67,West,270,4.0,11.0,28,0.00,,,0.00,Weather View 32 v70,2013-02-20 21:23:00,
2013-02-20 16:28:00,57.7,26.4,29.67,West,270,2.0,11.0,30,0.00,,,0.00,Weather View 32 v70,2013-02-20 21:28:00,
2013-02-20 16:33:00,57.2,25.2,29.67,WNW,292,4.0,11.0,29,0.00,,,0.00,Weather View 32 v70,2013-02-20 21:33:00,
2013-02-20 16:38:00,57.2,26.0,29.67,West,270,2.0,11.0,30,0.00,,,0.00,Weather View 32 v70,2013-02-20 21:38:00,
2013-02-20 16:43:00,57.2,26.8,29.67,West,270,4.0,11.0,31,0.00,,,0.00,Weather View 32 v70,2013-02-20 21:43:00,
2013-02-20 16:48:00,57.4,27.7,29.67,WSW,247,3.0,11.0,32,0.00,,,0.00,Weather View 32 v70,2013-02-20 21:48:00,
2013-02-20 16:53:00,57.3,27.6,29.67,WSW,247,4.0,10.0,32,0.00,,,0.00,Weather View 32 v70,2013-02-20 21:53:00,
2013-02-20 16:58:00,57.2,27.5,29.67,West,270,5.0,10.0,32,0.00,,,0.00,Weather View 32 v70,2013-02-20 21:58:00,
2013-02-20 17:03:00,57.2,27.5,29.67,West,270,4.0,10.0,32,0.00,,,0.00,Weather View 32 v70,2013-02-20 22:03:00,
2013-02-20 17:08:00,57.4,27.7,29.68,West,270,5.0,10.0,32,0.00,,,0.00,Weather View 32 v70,2013-02-20 22:08:00,
2013-02-20 17:13:00,57.5,27.8,29.67,WNW,292,4.0,10.0,32,0.00,,,0.00,Weather View 32 v70,2013-02-20 22:13:00,
2013-02-20 17:18:00,57.3,27.6,29.68,West,270,2.0,10.0,32,0.00,,,0.00,Weather View 32 v70,2013-02-20 22:18:00,
2013-02-20 17:23:00,57.2,28.3,29.68,West,270,4.0,10.0,33,0.00,,,0.00,Weather View 32 v70,2013-02-20 22:23:00,
2013-02-20 17:28:00,56.9,28.0,29.68,West,270,4.0,10.0,33,0.00,,,0.00,Weather View 32 v70,2013-02-20 22:28:00,
2013-02-20 17:33:00,56.7,28.6,29.69,West,270,2.0,10.0,34,0.00,,,0.00,Weather View 32 v70,2013-02-20 22:33:00,
2013-02-20 17:38:00,56.5,29.1,29.69,West,270,2.0,10.0,35,0.00,,,0.00,Weather View 32 v70,2013-02-20 22:38:00,
2013-02-20 17:43:00,56.3,28.9,29.69,West,270,2.0,10.0,35,0.00,,,0.00,Weather View 32 v70,2013-02-20 22:43:00,
2013-02-20 17:48:00,56.1,29.5,29.69,West,270,1.0,10.0,36,0.00,,,0.00,Weather View 32 v70,2013-02-20 22:48:00,
2013-02-20 17:53:00,55.9,30.0,29.69,West,270,2.0,10.0,37,0.00,,,0.00,Weather View 32 v70,2013-02-20 22:53:00,
2013-02-20 17:58:00,55.7,30.4,29.69,West,270,3.0,6.0,38,0.00,,,0.00,Weather View 32 v70,2013-02-20 22:58:00,
2013-02-20 18:03:00,55.6,29.7,29.69,West,270,2.0,6.0,37,0.00,,,0.00,Weather View 32 v70,2013-02-20 23:03:00,
2013-02-20 18:08:00,55.5,30.3,29.69,WSW,247,1.0,6.0,38,0.00,,,0.00,Weather View 32 v70,2013-02-20 23:08:00,
2013-02-20 18:13:00,55.3,30.1,29.70,WSW,247,1.0,6.0,38,0.00,,,0.00,Weather View 32 v70,2013-02-20 23:13:00,
2013-02-20 18:18:00,55.3,30.7,29.70,West,270,1.0,5.0,39,0.00,,,0.00,Weather View 32 v70,2013-02-20 23:18:00,
2013-02-20 18:23:00,55.1,30.5,29.70,West,270,2.0,6.0,39,0.00,,,0.00,Weather View 32 v70,2013-02-20 23:23:00,
2013-02-20 18:28:00,54.9,30.4,29.70,West,270,2.0,6.0,39,0.00,,,0.00,Weather View 32 v70,2013-02-20 23:28:00,
2013-02-20 18:33:00,54.7,30.8,29.70,West,270,4.0,10.0,40,0.00,,,0.00,Weather View 32 v70,2013-02-20 23:33:00,
2013-02-20 18:38:00,54.6,30.7,29.70,West,270,2.0,10.0,40,0.00,,,0.00,Weather View 32 v70,2013-02-20 23:38:00,
2013-02-20 18:43:00,54.5,30.6,29.70,West,270,3.0,10.0,40,0.00,,,0.00,Weather View 32 v70,2013-02-20 23:43:00,
2013-02-20 18:48:00,54.5,30.0,29.70,West,270,4.0,10.0,39,0.00,,,0.00,Weather View 32 v70,2013-02-20 23:48:00,
2013-02-20 18:53:00,54.4,29.9,29.70,WNW,292,5.0,10.0,39,0.00,,,0.00,Weather View 32 v70,2013-02-20 23:53:00,
2013-02-20 18:58:00,54.3,30.4,29.71,West,270,6.0,10.0,40,0.00,,,0.00,Weather View 32 v70,2013-02-20 23:58:00,
2013-02-20 19:04:00,54.1,30.3,29.71,WNW,292,2.0,10.0,40,0.00,,,0.00,Weather View 32 v70,2013-02-21 00:04:00,
2013-02-20 19:09:00,53.9,30.1,29.71,WNW,292,4.0,10.0,40,0.20,,,0.00,Weather View 32 v70,2013-02-21 00:09:00,
2013-02-20 19:14:00,53.9,30.7,29.71,West,270,2.0,10.0,41,0.00,,,0.00,Weather View 32 v70,2013-02-21 00:14:00,
2013-02-20 19:19:00,53.7,30.5,29.70,West,270,2.0,10.0,41,0.00,,,0.00,Weather View 32 v70,2013-02-21 00:19:00,
2013-02-20 19:24:00,53.6,30.4,29.70,West,270,3.0,10.0,41,0.00,,,0.00,Weather View 32 v70,2013-02-21 00:24:00,
2013-02-20 19:29:00,53.4,30.2,29.69,West,270,2.0,10.0,41,0.00,,,0.00,Weather View 32 v70,2013-02-21 00:29:00,
2013-02-20 19:34:00,53.2,30.1,29.68,West,270,2.0,7.0,41,0.00,,,0.00,Weather View 32 v70,2013-02-21 00:34:00,
2013-02-20 19:39:00,53.0,29.9,29.67,West,270,0.0,6.0,41,0.00,,,0.00,Weather View 32 v70,2013-02-21 00:39:00,
2013-02-20 19:44:00,52.9,29.8,29.67,NW,315,0.0,6.0,41,0.00,,,0.00,Weather View 32 v70,2013-02-21 00:44:00,
2013-02-20 19:49:00,51.7,33.1,29.66,ENE,67,1.0,6.0,49,0.00,,,0.00,Weather View 32 v70,2013-02-21 00:49:00,
2013-02-20 19:54:00,51.6,33.5,29.66,ENE,67,0.0,6.0,50,0.00,,,0.00,Weather View 32 v70,2013-02-21 00:54:00,
2013-02-20 19:59:00,51.2,33.2,29.67,SW,225,2.0,6.0,50,0.00,,,0.00,Weather View 32 v70,2013-02-21 00:59:00,
2013-02-20 20:04:00,51.4,33.3,29.67,SW,225,2.0,5.0,50,0.00,,,0.00,Weather View 32 v70,2013-02-21 01:04:00,
2013-02-20 20:09:00,51.7,31.5,29.67,SW,225,2.0,5.0,46,0.00,,,0.00,Weather View 32 v70,2013-02-21 01:09:00,
2013-02-20 20:14:00,51.7,31.0,29.67,WSW,247,1.0,4.0,45,0.00,,,0.00,Weather View 32 v70,2013-02-21 01:14:00,
2013-02-20 20:19:00,51.8,30.5,29.67,WSW,247,3.0,6.0,44,0.00,,,0.00,Weather View 32 v70,2013-02-21 01:19:00,
2013-02-20 20:24:00,51.9,31.2,29.67,WSW,247,2.0,6.0,45,0.00,,,0.00,Weather View 32 v70,2013-02-21 01:24:00,
2013-02-20 20:29:00,52.1,30.8,29.67,WSW,247,1.0,6.0,44,0.00,,,0.00,Weather View 32 v70,2013-02-21 01:29:00,
2013-02-20 20:34:00,52.2,30.9,29.67,WSW,247,1.0,6.0,44,0.00,,,0.00,Weather View 32 v70,2013-02-21 01:34:00,
2013-02-20 20:39:00,52.3,30.4,29.67,WSW,247,1.0,6.0,43,0.00,,,0.00,Weather View 32 v70,2013-02-21 01:39:00,
2013-02-20 20:44:00,52.3,29.8,29.67,WSW,247,0.0,6.0,42,0.00,,,0.00,Weather View 32 v70,2013-02-21 01:44:00,
2013-02-20 20:49:00,52.3,29.8,29.67,WSW,247,2.0,6.0,42,0.00,,,0.00,Weather View 32 v70,2013-02-21 01:49:00,
2013-02-20 20:54:00,52.2,29.8,29.68,WSW,247,1.0,6.0,42,0.00,,,0.00,Weather View 32 v70,2013-02-21 01:54:00,
2013-02-20 20:59:00,51.9,29.5,29.68,WSW,247,0.0,6.0,42,0.00,,,0.00,Weather View 32 v70,2013-02-21 01:59:00,
2013-02-20 21:04:00,51.9,28.3,29.68,WSW,247,0.0,6.0,40,0.00,,,0.00,Weather View 32 v70,2013-02-21 02:04:00,
2013-02-20 21:09:00,50.2,31.7,29.66,South,180,2.0,6.0,49,0.00,,,0.00,Weather View 32 v70,2013-02-21 02:09:00,
2013-02-20 21:14:00,49.9,31.5,29.67,South,180,0.0,6.0,49,0.00,,,0.00,Weather View 32 v70,2013-02-21 02:14:00,
2013-02-20 21:19:00,49.2,34.1,29.67,South,180,0.0,6.0,56,0.00,,,0.00,Weather View 32 v70,2013-02-21 02:19:00,
2013-02-20 21:24:00,48.9,34.3,29.67,South,180,0.0,4.0,57,0.00,,,0.00,Weather View 32 v70,2013-02-21 02:24:00,
2013-02-20 21:29:00,48.4,33.4,29.67,South,180,0.0,2.0,56,0.00,,,0.00,Weather View 32 v70,2013-02-21 02:29:00,
2013-02-20 21:34:00,48.2,33.7,29.67,South,180,0.0,2.0,57,0.00,,,0.00,Weather View 32 v70,2013-02-21 02:34:00,
2013-02-20 21:39:00,47.8,31.9,29.68,South,180,0.0,2.0,54,0.00,,,0.00,Weather View 32 v70,2013-02-21 02:39:00,
2013-02-20 21:44:00,47.7,32.3,29.68,South,180,0.0,2.0,55,0.00,,,0.00,Weather View 32 v70,2013-02-21 02:44:00,
2013-02-20 21:49:00,47.4,33.3,29.68,South,180,0.0,2.0,58,0.00,,,0.00,Weather View 32 v70,2013-02-21 02:49:00,
2013-02-20 21:54:00,46.8,33.2,29.69,South,180,0.0,2.0,59,0.00,,,0.00,Weather View 32 v70,2013-02-21 02:54:00,
2013-02-20 21:59:00,46.2,35.1,29.68,South,180,0.0,2.0,65,0.00,,,0.00,Weather View 32 v70,2013-02-21 02:59:00,
2013-02-20 22:05:00,46.2,34.3,29.69,South,180,0.0,2.0,63,0.00,,,0.00,Weather View 32 v70,2013-02-21 03:05:00,
2013-02-20 22:10:00,47.4,30.6,29.69,WSW,247,0.0,2.0,52,0.00,,,0.00,Weather View 32 v70,2013-02-21 03:10:00,
2013-02-20 22:15:00,48.2,30.9,29.69,WSW,247,2.0,2.0,51,0.00,,,0.00,Weather View 32 v70,2013-02-21 03:15:00,
2013-02-20 22:20:00,47.3,31.9,29.69,West,270,1.0,2.0,55,0.00,,,0.00,Weather View 32 v70,2013-02-21 03:20:00,
2013-02-20 22:25:00,46.9,32.0,29.69,West,270,1.0,2.0,56,0.00,,,0.00,Weather View 32 v70,2013-02-21 03:25:00,
2013-02-20 22:30:00,47.1,30.8,29.69,West,270,0.0,2.0,53,0.00,,,0.00,Weather View 32 v70,2013-02-21 03:30:00,
2013-02-20 22:35:00,46.7,32.3,29.68,West,270,0.0,2.0,57,0.00,,,0.00,Weather View 32 v70,2013-02-21 03:35:00,
2013-02-20 22:40:00,46.2,33.1,29.68,West,270,0.0,2.0,60,0.00,,,0.00,Weather View 32 v70,2013-02-21 03:40:00,
2013-02-20 22:45:00,45.9,32.4,29.68,West,270,2.0,2.0,59,0.00,,,0.00,Weather View 32 v70,2013-02-21 03:45:00,
2013-02-20 22:50:00,46.6,32.2,29.68,West,270,0.0,2.0,57,0.00,,,0.00,Weather View 32 v70,2013-02-21 03:50:00,
2013-02-20 22:55:00,45.9,35.2,29.69,West,270,2.0,2.0,66,0.00,,,0.00,Weather View 32 v70,2013-02-21 03:55:00,
2013-02-20 23:00:00,45.4,34.7,29.69,West,270,2.0,2.0,66,0.00,,,0.00,Weather View 32 v70,2013-02-21 04:00:00,
2013-02-20 23:05:00,44.9,34.2,29.69,West,270,0.0,2.0,66,0.00,,,0.00,Weather View 32 v70,2013-02-21 04:05:00,
2013-02-20 23:10:00,44.5,35.7,29.69,West,270,0.0,2.0,71,0.00,,,0.00,Weather View 32 v70,2013-02-21 04:10:00,
2013-02-20 23:15:00,44.3,34.8,29.68,West,270,0.0,2.0,69,0.00,,,0.00,Weather View 32 v70,2013-02-21 04:15:00,
2013-02-20 23:20:00,44.3,34.4,29.68,West,270,0.0,2.0,68,0.00,,,0.00,Weather View 32 v70,2013-02-21 04:20:00,
2013-02-20 23:25:00,44.1,34.2,29.68,West,270,0.0,2.0,68,0.00,,,0.00,Weather View 32 v70,2013-02-21 04:25:00,
2013-02-20 23:30:00,44.2,34.3,29.69,West,270,0.0,2.0,68,0.00,,,0.00,Weather View 32 v70,2013-02-21 04:30:00,
2013-02-20 23:35:00,44.9,33.4,29.69,West,270,2.0,2.0,64,0.00,,,0.00,Weather View 32 v70,2013-02-21 04:35:00,
2013-02-20 23:40:00,45.6,32.5,29.69,West,270,1.0,2.0,60,0.00,,,0.00,Weather View 32 v70,2013-02-21 04:40:00,
2013-02-20 23:45:00,45.9,32.8,29.68,West,270,1.0,2.0,60,0.00,,,0.00,Weather View 32 v70,2013-02-21 04:45:00,
2013-02-20 23:50:00,45.2,33.3,29.69,West,270,0.0,2.0,63,0.00,,,0.00,Weather View 32 v70,2013-02-21 04:50:00,
2013-02-20 23:55:00,44.7,34.4,29.68,West,270,0.0,2.0,67,0.00,,,0.00,Weather View 32 v70,2013-02-21 04:55:00,